Regional Weather Roundup
Issued by NWS Goodland, KS

Home | Current Version | Previous Version | Text Only | Print | Product List | Glossary On
Versions: 1 2 3 4 5 6 7 8 9 10 11 12 13 14 15 16 17 18 19 20 21 22 23 24 25 26 27 28 29 30 31 32 33 34 35 36 37 38 39 40 41 42 43 44 45 46 47 48 49 50
000
ASUS43 KGLD 091408
RWRGLD

GOODLAND FORECAST AREA HOURLY WEATHER ROUNDUP
NATIONAL WEATHER SERVICE GOODLAND KS
700 AM MST FRI DEC 09 2016

...OFFICIAL OBSERVATIONS...

CITY           SKY/WX    TMP DP  RH WIND       PRES   REMARKS
GOODLAND KS    CLOUDY     9   5  84 S12       30.23F WCI  -6
HILL CITY KS   CLOUDY    19   9  65 S10       30.43F WCI   7
IMPERIAL NEB   CLOUDY    11   4  73 SE8       30.26S
MCCOOK NEB     CLOUDY    15   8  73 SE13      30.36F WCI   1
AKRON CO       CLOUDY     5   0  79 SW7       30.11S
BURLINGTON CO  CLOUDY     8   1  73 S13       30.18F WCI  -8
LIMON CO       CLOUDY     0  -2  91 CALM      30.11R
$$

...UNOFFICIAL OBSERVATIONS...

CITY           SKY/WX    TMP DP  RH WIND       PRES   REMARKS
COLBY KS       CLEAR     14  10  85 SE9       30.31F
LENORA KS        N/A     17  32 100 MISG        N/A
NORTON KS      CLOUDY    16   9  73 E8        30.41S
SHARON SPRINGS   N/A     13   9  82 SE10        N/A  WCI   0
TRENTON NEB      N/A     12  32 100 S6          N/A
KIT CARSON CO    N/A      6   0  76 CALM        N/A
YUMA CO        FAIR       3  -2  78 S6        30.17S
$$



USA.gov is the U.S. government's official web portal to all federal, state and local government web resources and services.